Weather in Gijduvan

Uzbekistan     40°06′10″N   64°40′42″E
temp.,
°C
wind,
m/s
gust,
m/s
humid.,
%
clouds,
%
prec.,
mm/h
press.,
hPa
HPBL,
m
18 april, sun
sun1823:00+20w101139100 0.0 1019391
02:00+19wnw474070 0.0 1019148
05:00+18nnw334291 0.0 102029
08:00+20nnw11345 0.0 1021167
11:00+23wsw22260 0.0 10212336
14:00+26sw23215 0.0 10203160
17:00+26ssw22195 0.0 10182897
20:00+23sse11255 0.0 101824
19 april, mon
mon1923:00+21sse463597 0.0 101898
02:00+20se334064 0.0 101725
05:00+19ene233950 0.0 101618
08:00+21ese2335100 0.0 1016197
11:00+24se2324100 0.0 10151121
14:00+27se2317100 0.0 10122662
17:00+27sse2216100 0.0 10112866
20:00+25w1119100 0.0 101141
20 april, tue
tue2023:00+23n342389 0.0 101151
02:00+21nnw452797 0.0 101073
05:00+20nw4626100 0.0 101091
08:00+22nne5629100 0.0 1012352
11:00+24ssw242488 0.0 10132502
14:00+26ssw462262 0.0 10112957
17:00+28sw671891 0.0 10083378
20:00+25w592184 0.0 1009237
21 april, wed
wed2123:00+23w612256 0.0 1009267
02:00+17n58582 0.0 1010216
05:00+15n711715 0.0 1013463
08:00+15n89650 0.0 1016697
11:00+18n77430 0.0 10171182
14:00+21n77270 0.0 10171562
17:00+20n99210 0.0 10171559
20:00+16nne911240 0.0 1020913
22 april, thu
thu2223:00+13nne101335100 0.0 1021636
02:00+10nne101447100 0.0 1021480
05:00+9nne101354100 0.0 1021349
08:00+11ne101148100 0.0 1022402
11:00+18ne772334 0.0 1023901
14:00+22nne1010175 0.0 10221253
17:00+22ne111117100 0.0 10211098
20:00+17ne1215250 0.0 1022449